Location: ????????
(37.6846°N, 24.0673°E)
Time: 14:57:04
(UTC+00:00)

IRS-1C - Pass Details

Date: 14 July 2020
Orbit: 815 x 817 km, 98.8° (Epoch: 03 August)

Event Time Altitude Azimuth Distance (km) Brightness Sun altitude
Rises 01:12:46 0° 10° (N) 3,349 8.3 -19.4°
Reaches altitude 10° 01:15:08 10° 8° (N) 2,413 7.4 -19.1°
Maximum altitude 01:20:25 67° 286° (WNW) 882 4.1 -18.4°
Enters shadow 01:22:56 31° 213° (SSW) 1,386 4.8 -18.1°
